Weather History for Rugby, ND

Change the Weather History Date:

Tuesday, July 16, 2013

  Actual Average Record
Temperature  
Mean Temperature 68 °F -  
Max Temperature 75 °F 84 °F 98 °F (1949)
Min Temperature 62 °F 57 °F 45 °F (1958)
Cooling Degree Days 4    
Growing Degree Days 18 (Base 50)    
Moisture  
Dew Point 64 °F    
Average Humidity 86    
Maximum Humidity 100    
Minimum Humidity 65    
Precipitation  
Precipitation 0.24 in - - ()
Sea Level Pressure  
Sea Level Pressure 30.09 in    
Wind  
Wind Speed 10 mph (NNE)    
Max Wind Speed 28 mph    
Max Gust Speed 43 mph    
Visibility 10 miles    
Events Rain , Thunderstorm    
Averages and records for this station are not official NWS values.
T = Trace of Precipitation, MM = Missing Value Source: NWS Daily Summary

Daily Weather History Graph

Daily Weather History Graph

Search for Another Location

Airport:

Trip Planner

Search our weather history database for the weather conditions in past years. The results will help you decide how hot, cold, wet, or windy it might be!

Date:

Astronomy

Jul. 16, 2013 Rise Set
Actual Time 5:56 AM CDT 9:35 PM CDT
Civil Twilight 5:16 AM CDT 10:15 PM CDT
Nautical Twilight 4:22 AM CDT 11:08 PM CDT
Astronomical Twilight 3:06 AM CDT 12:23 AM CDT
Moon 3:07 PM CDT (7/16) 12:41 AM CDT (7/16)
Length of Visible Light 16h 58m
Length of Day
15h 39m
First Quarter, 56% of the Moon is Illuminated
Jul 16
First Quarter
Jul 22
Full
Jul 29
Last Quarter
Aug 6
New
Aug 14
First Quarter

Hourly Weather History & Observations

Time (CDT) Temp. Dew Point Humidity Pressure Visibility Wind Dir Wind Speed Gust Speed Precip Events Conditions
12:15 AM 73.4 °F 71.6 °F 94% 29.96 in 10.0 mi South 10.4 mph 16.1 mph N/A   Scattered Clouds
12:35 AM 73.4 °F 69.8 °F 88% 29.96 in 10.0 mi South 10.4 mph - N/A   Scattered Clouds
12:55 AM 68.0 °F 62.6 °F 83% 30.03 in 10.0 mi NW 21.9 mph 36.8 mph N/A Rain Light Rain
1:15 AM 64.4 °F 62.6 °F 94% 30.03 in 10.0 mi NNW 11.5 mph 23.0 mph N/A Rain Light Rain
1:35 AM 64.4 °F 62.6 °F 94% 30.06 in 7.0 mi SW 8.1 mph - 0.04 in Rain , Thunderstorm Thunderstorms and Rain
1:55 AM 62.6 °F 62.6 °F 100% 29.98 in 5.0 mi ESE 13.8 mph - 0.17 in Rain , Thunderstorm Light Rain
2:15 AM 62.6 °F 62.6 °F 100% 29.98 in 10.0 mi ENE 5.8 mph - N/A   Partly Cloudy
2:35 AM 62.6 °F 62.6 °F 100% 29.95 in 10.0 mi ESE 8.1 mph - N/A   Clear
2:55 AM 62.6 °F 62.6 °F 100% 29.95 in 10.0 mi ESE 4.6 mph - N/A   Clear
3:15 AM 62.6 °F 62.6 °F 100% 29.95 in 10.0 mi SE 9.2 mph - N/A   Clear
3:35 AM 62.6 °F 62.6 °F 100% 29.96 in 10.0 mi ESE 5.8 mph - N/A   Clear
3:55 AM 62.6 °F 62.6 °F 100% 29.95 in 10.0 mi SE 5.8 mph - N/A   Clear
4:15 AM 62.6 °F 62.6 °F 100% 29.97 in 10.0 mi SE 3.5 mph - N/A   Clear
4:35 AM 64.4 °F 64.4 °F 100% 30.06 in 10.0 mi NW 27.6 mph 42.6 mph N/A   Partly Cloudy
4:55 AM 66.2 °F 64.4 °F 94% 30.06 in 10.0 mi NW 12.7 mph 24.2 mph N/A   Mostly Cloudy
5:15 AM 64.4 °F 64.4 °F 100% 30.04 in 10.0 mi NW 4.6 mph - N/A   Mostly Cloudy
5:35 AM 64.4 °F 64.4 °F 100% 29.98 in 10.0 mi SE 9.2 mph - N/A   Partly Cloudy
5:55 AM 64.4 °F 62.6 °F 94% 29.95 in 10.0 mi SE 9.2 mph - N/A   Partly Cloudy
6:15 AM 64.4 °F 62.6 °F 94% 29.97 in 10.0 mi SE 5.8 mph - N/A   Clear
6:35 AM 62.6 °F 62.6 °F 100% 29.97 in 10.0 mi SSE 6.9 mph - N/A   Clear
6:55 AM 64.4 °F 62.6 °F 94% 29.98 in 10.0 mi South 8.1 mph - N/A   Clear
7:15 AM 64.4 °F 64.4 °F 100% 30.02 in 10.0 mi WNW 8.1 mph 17.3 mph N/A   Clear
7:35 AM 66.2 °F 64.4 °F 94% 30.01 in 10.0 mi West 3.5 mph - N/A   Clear
7:55 AM 66.2 °F 64.4 °F 94% 30.01 in 10.0 mi WNW 3.5 mph - N/A   Clear
8:15 AM 68.0 °F 64.4 °F 88% 30.02 in 10.0 mi WSW 4.6 mph - N/A   Clear
8:35 AM 69.8 °F 64.4 °F 83% 30.04 in 10.0 mi West 8.1 mph - N/A   Clear
8:55 AM 71.6 °F 64.4 °F 78% 30.08 in 10.0 mi WNW 19.6 mph 27.6 mph N/A   Clear
9:15 AM 68.0 °F 64.4 °F 88% 30.08 in 10.0 mi NW 20.7 mph 29.9 mph N/A   Clear
9:35 AM 68.0 °F 64.4 °F 88% 30.06 in 10.0 mi North 17.3 mph 26.5 mph N/A   Clear
9:55 AM 71.6 °F 64.4 °F 78% 30.02 in 10.0 mi ENE 12.7 mph - N/A   Clear
10:15 AM 73.4 °F 64.4 °F 73% 30.03 in 10.0 mi East 10.4 mph - N/A   Clear
10:55 AM 75.2 °F 66.2 °F 73% 30.06 in 10.0 mi North 4.6 mph - N/A   Clear
11:15 AM 75.2 °F 66.2 °F 73% 30.07 in 10.0 mi NNW 12.7 mph 17.3 mph N/A   Clear
11:35 AM 75.2 °F 66.2 °F 73% 30.08 in 10.0 mi North 9.2 mph - N/A   Clear
11:55 AM 75.2 °F 66.2 °F 73% 30.09 in 10.0 mi NNW 11.5 mph 17.3 mph N/A   Clear
12:15 PM 75.2 °F 64.4 °F 69% 30.10 in 10.0 mi North 9.2 mph - N/A   Clear
12:35 PM 75.2 °F 64.4 °F 69% 30.11 in 10.0 mi NNW 11.5 mph - N/A   Clear
12:55 PM 75.2 °F 64.4 °F 69% 30.12 in 10.0 mi NNW 9.2 mph - N/A   Partly Cloudy
1:15 PM 75.2 °F 64.4 °F 69% 30.13 in 10.0 mi North 9.2 mph - N/A   Clear
1:35 PM 75.2 °F 62.6 °F 65% 30.13 in 10.0 mi North 11.5 mph 17.3 mph N/A   Partly Cloudy
1:55 PM 73.4 °F 62.6 °F 69% 30.13 in 10.0 mi NNE 12.7 mph - N/A   Partly Cloudy
2:15 PM 75.2 °F 64.4 °F 69% 30.12 in 10.0 mi NNE 10.4 mph 17.3 mph N/A Thunderstorm Partly Cloudy
2:35 PM 75.2 °F 62.6 °F 65% 30.14 in 10.0 mi NNW 10.4 mph - N/A Thunderstorm Thunderstorm
3:55 PM 68.0 °F 66.2 °F 94% 30.17 in 10.0 mi NNW 9.2 mph - 0.07 in   Mostly Cloudy
4:15 PM 68.0 °F 64.4 °F 88% 30.15 in 10.0 mi NE 8.1 mph - N/A   Partly Cloudy
4:35 PM 69.8 °F 66.2 °F 88% 30.13 in 10.0 mi ENE 12.7 mph - N/A   Clear
4:55 PM 71.6 °F 66.2 °F 83% 30.15 in 10.0 mi ENE 9.2 mph - N/A   Clear
5:15 PM 71.6 °F 64.4 °F 78% 30.17 in 10.0 mi NE 5.8 mph - N/A   Partly Cloudy
5:35 PM 71.6 °F 64.4 °F 78% 30.17 in 10.0 mi NE 8.1 mph - N/A   Partly Cloudy
5:55 PM 71.6 °F 64.4 °F 78% 30.17 in 10.0 mi ENE 6.9 mph - N/A   Clear
6:15 PM 71.6 °F 64.4 °F 78% 30.17 in 10.0 mi NNE 3.5 mph - N/A   Clear
6:35 PM 71.6 °F 64.4 °F 78% 30.16 in 10.0 mi NNE 4.6 mph - N/A   Clear
6:55 PM 71.6 °F 64.4 °F 78% 30.16 in 10.0 mi NE 5.8 mph - N/A   Clear
7:15 PM 71.6 °F 64.4 °F 78% 30.15 in 10.0 mi North 10.4 mph - N/A   Clear
7:35 PM 69.8 °F 62.6 °F 78% 30.14 in 10.0 mi NNE 10.4 mph - N/A   Clear
7:55 PM 71.6 °F 62.6 °F 73% 30.16 in 10.0 mi North 10.4 mph - N/A   Clear
8:15 PM 69.8 °F 60.8 °F 73% 30.17 in 10.0 mi North 5.8 mph - N/A   Clear
8:35 PM 69.8 °F 62.6 °F 78% 30.16 in 10.0 mi North 10.4 mph - N/A   Clear
8:55 PM 68.0 °F 62.6 °F 83% 30.16 in 10.0 mi North 9.2 mph - N/A   Clear
9:15 PM 66.2 °F 62.6 °F 88% 30.18 in 10.0 mi North 6.9 mph - N/A   Clear
9:35 PM 64.4 °F 62.6 °F 94% 30.19 in 10.0 mi North 5.8 mph - N/A   Clear
9:55 PM 64.4 °F 62.6 °F 94% 30.20 in 9.0 mi Calm Calm - N/A   Clear
10:15 PM 64.4 °F 62.6 °F 94% 30.21 in 9.0 mi NW 3.5 mph - N/A   Partly Cloudy
10:35 PM 64.4 °F 62.6 °F 94% 30.20 in 9.0 mi NNE 5.8 mph - N/A   Partly Cloudy
10:55 PM 64.4 °F 62.6 °F 94% 30.22 in 10.0 mi Calm Calm - N/A   Partly Cloudy
11:15 PM 62.6 °F 62.6 °F 100% 30.22 in 10.0 mi NNE 3.5 mph - N/A   Clear
11:35 PM 62.6 °F 60.8 °F 94% 30.22 in 10.0 mi East 4.6 mph - N/A   Clear
11:55 PM 62.6 °F 60.8 °F 94% 30.22 in 10.0 mi ENE 4.6 mph - N/A   Clear